Location: Bun Machan
(52.1403°N, 7.3744°W)
Time: 08:39:50
(UTC+00:00)

Cosmos 2369 - Pass Details

Date: 14 July 2020
Orbit: 839 x 857 km, 71.0° (Epoch: 04 August)

Event Time Altitude Azimuth Distance (km) Brightness Sun altitude
Rises 03:20:57 0° 324° (NW) 3,436 7.1 -7.9°
Reaches altitude 10° 03:23:37 10° 315° (NW) 2,498 6.2 -7.6°
Maximum altitude 03:28:40 33° 254° (WSW) 1,406 4.5 -7.1°
Drops below altitude 10° 03:33:42 10° 192° (SSW) 2,485 5.6 -6.6°
Sets 03:36:22 0° 183° (S) 3,417 6.4 -6.4°
